Regional Weather Roundup
Issued by NWS State College, PA

Home | Current Version | Previous Version | Text Only | Print | Product List | Glossary Off
Versions: 1 2 3 4 5 6 7 8 9 10 11 12 13 14 15 16 17 18 19 20 21 22 23 24 25 26 27 28 29 30 31 32 33 34 35 36 37 38 39 40 41 42 43 44 45 46 47 48 49 50

000
ASUS41 KCTP 230003
RWRCTP

REGIONAL WEATHER ROUNDUP
NATIONAL WEATHER SERVICE STATE COLLEGE PA
700 PM EST SUN JAN 22 2017

Note: "fair" indicates few or no clouds below 12,000 feet with no
significant weather and/or obstructions to visibility.

* = STATION THAT DOES NOT REPORT PRECIPITATION /E.G. RAIN...SNOW...ETC/
    THUNDER OR FOG.

PAZ002>004-007>009-013>016-020>023-029>032-230100-
WESTERN PENNSYLVANIA

CITY           SKY/WX    TMP DP  RH WIND       PRES   REMARKS
ERIE           FOG       41  39  93 NE9       29.62S VSB 1/4
MEADVILLE      CLOUDY    54  45  71 E3        29.59R
FRANKLIN*        N/A     54  46  76 E3        29.61R
NEW CASTLE     CLOUDY    56  49  77 NE3       29.59R
BEAVER COUNTY  NOT AVBL
BUTLER*        CLOUDY    55  46  71 E13       29.60S
PITTSBURGH INT CLOUDY    58  49  72 E8        29.55R
PITTSBURGH     CLOUDY    58  46  64 E6        29.55S
INDIANA*       CLOUDY    52  46  82 E8        29.63S
LATROBE        CLOUDY    54  46  76 E7        29.59R
WASHINGTON CO* CLOUDY    57  46  67 E9        29.55S
$$

PAZ004>006-010>012-017>019-024>028-033>037-041-042-045-046-049>053-230100-
CENTRAL PENNSYLVANIA

CITY           SKY/WX    TMP DP  RH WIND       PRES   REMARKS
BRADFORD       CLOUDY    53  48  83 E7        29.63R
DUBOIS         CLOUDY    53  44  71 SE8       29.62R
CLEARFIELD     CLOUDY    50  46  86 E6        29.65R
JOHNSTOWN      CLOUDY    46  44  93 E6        29.59S
ALTOONA        FOG       44  43  96 NE3       29.65R VSB 1/2
STATE COLLEGE  FOG       41  41 100 CALM      29.68R VSB 1/8
WILLIAMSPORT   CLOUDY    45  43  93 CALM      29.68R FOG
SELINSGROVE    FOG       44  44 100 CALM      29.71R VSB 1/2
FT INDIANTOWN  CLOUDY    46  46 100 CALM      29.70R
CAPITAL CITY   CLOUDY    48  44  86 CALM      29.69R FOG
HARRISBURG     CLOUDY    46  46 100 NW3       29.68R FOG
YORK           CLOUDY    45  45 100 CALM      29.67S FOG
$$

PAZ038>040-043-044-047-048-054-055-060>062-067>071-230100-
EASTERN PENNSYLVANIA

CITY           SKY/WX    TMP DP  RH WIND       PRES   REMARKS
SCRANTON       CLOUDY    52  48  86 NE5       29.69R
MOUNT POCONO   FOG       45  44  97 E12       29.70R VSB 1/4
ALLENTOWN      CLOUDY    50  46  86 E9        29.71R
QUAKERTOWN*    CLOUDY    46  46 100 E7        29.71S
READING        CLOUDY    50  49  96 E3        29.69R
LANCASTER      CLOUDY    48  48 100 E5        29.68R FOG
COATESVILLE    LGT RAIN  48  48 100 CALM      29.69R
POTTSTOWN      LGT RAIN  48  47  96 VRB7      29.71R FOG
BLUE BELL      CLOUDY    46  46 100 E8        29.70R
DOYLESTOWN     CLOUDY    49  47  93 NE6       29.69S
WILLOW GROVE   NOT AVBL
NORTH PHILA    CLOUDY    49  47  93 E9        29.72R FOG
PHILADELPHIA   LGT RAIN  48  46  93 NE13      29.70R FOG
$$




USA.gov is the U.S. government's official web portal to all federal, state and local government web resources and services.